Regional Weather Roundup
Issued by NWS Nashville, TN

Home | Current Version | Previous Version | Text Only | Print | Product List | Glossary On
Versions: 1 2 3 4 5 6 7 8 9 10 11 12 13 14 15 16 17 18 19 20 21 22 23 24 25 26 27 28 29 30 31 32 33 34 35 36 37 38 39 40 41 42 43 44 45 46 47 48 49 50
000
ASUS44 KOHX 270815
RWROHX
MIDDLE TENNESSEE HOURLY WEATHER ROUNDUP
NATIONAL WEATHER SERVICE NASHVILLE TN
300 AM CDT FRI MAR 27 2015

NOTE: "FAIR" INDICATES FEW OR NO CLOUDS BELOW 12,000 FEET WITH
NO SIGNIFICANT WEATHER AND/OR OBSTRUCTIONS TO VISIBILITY.

* THESE REPORTS ARE NOT UNDER NWS QUALITY CONTROL AND MAY NOT
  REPORT WEATHER SUCH AS PRECIPITATION AND FOG.


TNZ005>011-023>034-057-059-062>066-078-080-270900
...NORTHERN MIDDLE TENNESSEE...

CITY           SKY/WX    TMP DP  RH WIND       PRES   REMARKS
CLARKSVILLE    CLEAR     34  33  96 CALM      29.99F
CROSSVILLE     CLOUDY    39  36  89 N8        29.89S WCI  33
GALLATIN         N/A     38  36  92 N3        29.98S
LIVINGSTON     CLOUDY    41  38  89 N12       29.92S
NASHVILLE      MOCLDY    38  35  89 N6        29.98S WCI  33
PORTLAND       PTCLDY    34  34 100 CALM      29.96F
SMYRNA         MOCLDY    40  36  86 N8        29.98F WCI  34
SPARTA         CLOUDY    41  39  93 N9        29.90F
$$
TNZ056-058-060-061-075>077-079-093>097-270900
...SOUTHERN MIDDLE TENNESSEE...

CITY           SKY/WX    TMP DP  RH WIND       PRES   REMARKS
COLUMBIA       CLEAR     37  37 100 N3        29.95F
LEWISBURG      CLOUDY    39  35  85 N5        29.95F
MCMINNVILLE    CLOUDY    41  39  93 N8        29.92R
MURFREESBORO   CLOUDY    41  38  89 N8        29.96F
SHELBYVILLE    CLOUDY    41  37  87 N12       29.94F
TULLAHOMA      CLOUDY    37  37 100 N13       29.91F WCI  29
WINCHESTER     CLOUDY    41  39  93 N13       29.90F
$$


...KEY TO REMARKS...
VSB - VISIBILITY IN MILES
WCI - WIND CHILL INDEX
HX  - HEAT INDEX



USA.gov is the U.S. government's official web portal to all federal, state and local government web resources and services.